Search for airport 
image banner adimage banner ad
image banner ad

DAUG - Ghardaia / Noumerat-Moufdi Zakaria

Located in Ghardaia, Algeria

ICAO - DAUG, IATA - GHA

Data provided by Airmate  

General information

Coordinates: N32°22'54" E3°47'58"
Elevation is 1512 feet MSL.
 
View others Airports in Ghardaïa Province

Operational data

Open for public use
Current time UTC:
Current local time:
Weather
METAR: DAUG 290000Z 02004KT 340V080 CAVOK 23/06 Q1019
TAF: TAF DAUG 282300Z 2900/2924 VRB02KT CAVOK BECMG 2906/2909 10010KT BECMG 2921/2924 VRB02KT
View NOTAMs / SUP AIP / TFR affecting this airport [VIEW]
Communications frequencies: [VIEW]

Runways:

RWY identifierQFULength (ft)Width (ft)SurfaceLDA (ft)
18183°7874148
367874148
12122°10171197ASP
30302°10171197

Airport contact information

Address: Ghardaia Algeria

Satellite view of DAUG